Location: Adelaide
(34.9285°S, 138.6007°E)
Time: 18:00:59
(UTC+10:30)

Envisat - Pass Details

Date: 17 November 2019
Orbit: 764 x 766 km, 98.1° (Epoch: 13 December)

Event Time Altitude Azimuth Distance (km) Brightness Sun altitude
Rises 20:15:46 0° 171° (S) 3,267 6.5 -3.7°
Reaches altitude 10° 20:18:06 10° 173° (S) 2,334 5.8 -4.1°
Maximum altitude 20:23:14 70° 255° (WSW) 822 3.5 -5.0°
Drops below altitude 10° 20:28:17 10° 338° (NNW) 2,304 5.4 -6.0°
Sets 20:30:35 0° 340° (NNW) 3,223 6.1 -6.4°
